Total_Precipitation_Accumulation
0.12 0.21 0.24 0.24 0.22 0.18 0.14 0.12 0.21 0.25 0.36 0.43 0.43 0.55 0.68 0.80 0.80 0.78 0.65 0.54 0.54 0.51 0.57 0.64 0.67 0.75 0.71 0.68 0.69 0.81 0.99 1.09 1.20 1.20 1.17 1.14 1.15 1.15 1.13 1.22 1.25 1.32 1.36 1.36
0.16 0.19 0.24 0.27 0.25 0.18 0.13 0.11 0.16 0.24 0.37 0.48 0.54 0.62 0.67 0.61 0.55 0.53 0.47 0.36 0.35 0.45 0.52 0.52 0.53 0.58 0.53 0.57 0.67 0.78 0.87 0.97 1.11 1.21 1.20 1.14 1.12 1.14 1.12 1.19 1.25 1.32 1.31 1.37
0.24 0.24 0.24 0.34 0.33 0.24 0.15 0.14 0.20 0.32 0.47 0.61 0.52 0.51 0.57 0.53 0.52 0.51 0.47 0.31 0.26 0.31 0.39 0.42 0.45 0.48 0.58 0.69 0.78 0.87 0.95 1.01 1.13 1.22 1.26 1.24 1.17 1.22 1.23 1.29 1.36 1.37 1.33 1.32
0.30 0.41 0.50 0.37 0.30 0.29 0.28 0.26 0.27 0.40 0.41 0.52 0.52 0.58 0.67 0.63 0.58 0.46 0.40 0.32 0.25 0.25 0.29 0.36 0.44 0.53 0.67 0.89 1.01 1.02 1.06 1.11 1.24 1.33 1.31 1.32 1.33 1.39 1.49 1.56 1.58 1.57 1.52 1.42
0.46 0.58 0.50 0.44 0.32 0.36 0.40 0.53 0.54 0.62 0.58 0.51 0.51 0.58 0.65 0.56 0.48 0.46 0.38 0.35 0.33 0.30 0.38 0.46 0.51 0.56 0.74 0.93 1.12 1.18 1.15 1.19 1.32 1.41 1.45 1.51 1.57 1.58 1.63 1.70 1.66 1.62 1.61 1.65
0.58 0.72 0.71 0.60 0.47 0.46 0.57 0.98 0.81 0.74 0.74 0.61 0.59 0.69 0.72 0.65 0.56 0.51 0.44 0.43 0.43 0.42 0.50 0.61 0.66 0.73 0.87 0.98 1.09 1.23 1.29 1.40 1.55 1.71 1.74 1.79 1.94 2.01 1.93 1.86 1.74 1.78 1.78 1.79
0.73 0.78 0.84 0.72 0.66 0.68 1.05 1.31 0.99 0.84 0.81 0.76 0.84 0.86 0.80 0.71 0.68 0.62 0.53 0.52 0.49 0.50 0.59 0.73 0.84 0.93 1.05 1.19 1.28 1.26 1.33 1.48 1.70 1.85 1.93 2.00 2.13 2.21 2.20 2.18 2.15 2.09 2.02 2.01
0.86 1.03 1.19 0.83 0.79 1.16 1.39 1.16 1.16 1.13 1.05 0.93 0.88 0.84 0.78 0.70 0.68 0.63 0.59 0.63 0.62 0.63 0.76 0.90 1.02 1.05 1.14 1.22 1.25 1.29 1.33 1.45 1.58 1.72 1.76 1.84 2.06 2.16 2.24 2.27 2.24 2.16 2.10 1.98
1.11 1.23 1.13 0.91 0.97 1.14 1.25 1.39 1.32 1.23 1.21 1.05 0.98 0.89 0.78 0.69 0.64 0.60 0.57 0.62 0.65 0.70 0.89 1.07 1.19 1.23 1.29 1.22 1.29 1.34 1.40 1.53 1.65 1.74 1.81 1.90 1.95 1.94 2.03 2.11 2.11 2.04 2.02 1.96
1.24 1.28 1.18 1.02 0.89 0.84 0.98 1.10 1.07 1.03 1.05 1.03 1.00 0.92 0.81 0.68 0.57 0.55 0.54 0.50 0.54 0.65 0.75 0.86 0.96 1.06 1.19 1.28 1.36 1.42 1.49 1.54 1.61 1.73 1.76 1.79 1.90 1.98 2.04 2.15 2.24 2.15 2.04 1.96
1.45 1.32 1.14 1.20 1.12 1.00 1.05 1.13 1.06 0.98 0.93 0.93 0.91 0.87 0.73 0.66 0.59 0.53 0.51 0.50 0.53 0.63 0.67 0.74 0.81 0.88 0.98 1.08 1.21 1.30 1.37 1.43 1.49 1.53 1.61 1.68 1.73 1.81 1.82 1.90 1.89 1.86 1.81 1.80
1.65 1.44 1.31 1.30 1.17 1.05 1.10 1.08 1.11 1.12 1.09 0.90 0.80 0.84 0.77 0.69 0.60 0.58 0.57 0.56 0.59 0.62 0.63 0.67 0.72 0.85 0.96 1.06 1.20 1.34 1.44 1.46 1.41 1.39 1.45 1.50 1.53 1.52 1.49 1.42 1.39 1.35 1.35 1.35
1.27 1.13 1.14 1.16 1.12 1.00 1.01 0.96 0.94 0.97 0.97 0.88 0.82 0.76 0.76 0.72 0.66 0.60 0.54 0.54 0.58 0.62 0.62 0.64 0.68 0.79 0.88 0.98 1.11 1.23 1.32 1.37 1.35 1.34 1.40 1.41 1.43 1.45 1.47 1.40 1.28 1.20 1.17 1.15
1.06 1.01 0.99 0.97 0.94 0.93 0.91 0.85 0.76 0.73 0.74 0.74 0.74 0.74 0.71 0.70 0.67 0.67 0.65 0.60 0.57 0.56 0.56 0.59 0.67 0.72 0.81 0.91 1.02 1.08 1.14 1.20 1.28 1.36 1.41 1.47 1.50 1.54 1.62 1.68 1.61 1.43 1.25 1.15
1.09 0.99 0.91 0.77 0.75 0.79 0.78 0.69 0.61 0.61 0.67 0.70 0.62 0.57 0.56 0.53 0.52 0.55 0.55 0.54 0.54 0.54 0.60 0.63 0.69 0.73 0.81 0.94 1.03 1.04 1.04 1.05 1.07 1.14 1.22 1.30 1.32 1.37 1.47 1.56 1.60 1.50 1.34 1.19
1.16 1.03 0.84 0.70 0.74 0.80 0.75 0.71 0.63 0.56 0.56 0.61 0.59 0.52 0.47 0.45 0.46 0.47 0.48 0.50 0.59 0.64 0.69 0.75 0.81 0.79 0.85 0.95 1.03 1.06 1.01 1.00 0.99 0.99 1.01 1.02 1.04 1.11 1.20 1.31 1.36 1.30 1.20 1.08
1.18 1.11 0.94 0.80 0.74 0.76 0.72 0.70 0.61 0.53 0.47 0.47 0.48 0.44 0.41 0.41 0.41 0.44 0.47 0.49 0.54 0.59 0.66 0.77 0.82 0.82 0.90 0.98 1.01 1.04 0.99 0.96 0.93 0.93 0.91 0.91 0.93 0.97 1.02 1.05 1.11 1.06 0.98 0.85
1.05 0.99 0.91 0.83 0.74 0.72 0.72 0.66 0.61 0.56 0.52 0.49 0.45 0.42 0.43 0.48 0.56 0.59 0.58 0.57 0.57 0.57 0.57 0.62 0.71 0.78 0.90 1.02 1.06 1.03 0.93 0.84 0.78 0.76 0.79 0.82 0.83 0.89 0.94 0.94 0.91 0.86 0.79 0.63
0.90 0.85 0.84 0.81 0.80 0.79 0.76 0.70 0.64 0.59 0.53 0.49 0.48 0.50 0.54 0.58 0.66 0.68 0.65 0.68 0.77 0.80 0.71 0.62 0.67 0.67 0.76 0.93 1.06 1.06 0.95 0.83 0.74 0.70 0.69 0.70 0.72 0.81 0.86 0.83 0.74 0.69 0.63 0.59
0.92 0.93 0.96 0.95 0.91 0.89 0.82 0.73 0.68 0.64 0.56 0.50 0.50 0.54 0.59 0.62 0.68 0.74 0.74 0.72 0.76 0.85 0.84 0.77 0.66 0.60 0.63 0.78 0.99 0.97 0.92 0.84 0.74 0.64 0.65 0.69 0.71 0.76 0.78 0.78 0.72 0.67 0.63 0.61
0.97 1.05 1.06 0.98 0.91 0.83 0.75 0.70 0.67 0.66 0.62 0.60 0.61 0.65 0.70 0.71 0.69 0.77 0.85 0.78 0.67 0.73 0.81 0.80 0.69 0.59 0.58 0.70 0.90 0.93 0.88 0.81 0.70 0.59 0.58 0.62 0.66 0.71 0.75 0.75 0.71 0.64 0.62 0.63
1.09 1.17 1.08 0.92 0.84 0.77 0.68 0.63 0.60 0.58 0.57 0.62 0.67 0.73 0.87 0.93 0.86 0.81 0.74 0.72 0.70 0.79 0.83 0.76 0.68 0.58 0.51 0.57 0.69 0.79 0.77 0.71 0.64 0.56 0.50 0.51 0.57 0.65 0.66 0.66 0.63 0.59 0.58 0.60
1.02 1.02 0.94 0.78 0.68 0.59 0.52 0.51 0.51 0.48 0.49 0.58 0.69 0.85 1.07 1.09 1.01 1.02 0.86 0.65 0.65 0.76 0.77 0.72 0.63 0.53 0.48 0.48 0.56 0.63 0.65 0.64 0.60 0.51 0.42 0.43 0.47 0.51 0.54 0.51 0.52 0.53 0.50 0.45
0.80 0.77 0.68 0.56 0.51 0.49 0.51 0.52 0.48 0.46 0.48 0.55 0.62 0.78 1.05 1.21 1.03 0.80 0.73 0.70 0.69 0.67 0.64 0.64 0.57 0.49 0.46 0.44 0.46 0.54 0.59 0.62 0.58 0.52 0.44 0.44 0.44 0.45 0.49 0.47 0.46 0.43 0.38 0.38
0.74 0.65 0.56 0.51 0.52 0.57 0.60 0.60 0.59 0.56 0.60 0.65 0.63 0.68 0.85 1.07 1.08 0.80 0.64 0.59 0.61 0.59 0.58 0.61 0.61 0.57 0.48 0.41 0.40 0.48 0.54 0.56 0.57 0.52 0.48 0.48 0.45 0.47 0.48 0.45 0.44 0.41 0.40 0.41
0.72 0.65 0.59 0.54 0.54 0.61 0.67 0.74 0.84 0.85 0.92 1.02 0.95 0.85 0.89 0.93 0.86 0.75 0.63 0.54 0.52 0.54 0.53 0.56 0.61 0.63 0.54 0.45 0.45 0.49 0.52 0.57 0.57 0.54 0.52 0.50 0.46 0.44 0.45 0.44 0.44 0.43 0.40 0.37
0.72 0.68 0.66 0.63 0.60 0.64 0.75 0.89 1.03 1.11 1.22 1.38 1.38 1.15 1.03 1.00 0.91 0.80 0.70 0.62 0.60 0.58 0.55 0.53 0.53 0.55 0.56 0.53 0.50 0.49 0.53 0.61 0.61 0.60 0.57 0.50 0.45 0.43 0.41 0.38 0.37 0.36 0.34 0.31